Tracking 28794 objects as of 22-Apr-2024
HD Live streaming from Space Station
objects crossing your sky now

GRBALPHA

Track GRBALPHA now!
10-day predictions
GRBALPHA is classified as:


NORAD ID: 47941
Int'l Code: 2021-022K
Perigee: 503.8 km
Apogee: 525.0 km
Inclination: 97.5 °
Period: 94.8 minutes
Semi major axis: 6885 km
RCS: Unknown
Launch date: March 22, 2021
Source: (TBD)
Launch site: TYURATAM MISSILE AND SPACE COMPLEX (TTMTR)

Uplink (MHz):
Downlink (MHz): 435.310
Beacon (MHz):
Mode: 1k2/9k6* FSK
Call sign:
Status: Active


Uplink (MHz):
Downlink (MHz): 435.310
Beacon (MHz):
Mode: 1k2/9k6* FSK
Call sign:
Status: Active

Your satellite tracking list
Your tracking list is empty




NASA's NSSDC Master Catalog

Two Line Element Set (TLE):
1 47941U 21022K   24112.84200674  .00029381  00000-0  13780-2 0  9997
2 47941  97.4675  10.1701 0015394 349.8248  10.2672 15.19515878169908
Source of the keplerian elements: AFSPC